Back to catalog

FENGYUN 1C DEB

AlivePO
NORAD 37079·DEBRIS·🇨🇳 China

Launched May 10, 1999 from Taiyuan Satellite Launch Center

Loading…

Next Passes (next 24 hours)

TLE

FreshSource: Space-Track

Epoch: Sep 14, 2026, 05:36 UTC

1 37079U 99025EFP 26257.23393587  .00009666  00000-0  16635-2 0  9993
2 37079  98.8680  58.3460 0009765  13.1884 346.9572 14.68783991686490

Track FENGYUN 1C DEB in real time with AllMySat

Download on the App Store